Вернуться в каталог

STARLINK-31186

АктивенСвязьVLEO
NORAD 59030·PAYLOAD·🇺🇸 United States

Запущен Feb 25, 2024 с Cape Canaveral Space Force Station

Loading…

Ближайшие Пролёты (ближайшие 24 часа)

TLE

СвежийSource: CelesTrak SupGP

Эпоха: Sep 14, 2026, 13:44 UTC

1 59030C 24038H   26257.57270833 -.00045322  00000+0 -16416-2 0  2575
2 59030  43.0040  40.5286 0001338 269.3840  60.5282 15.27600208    17

Отслеживайте STARLINK-31186 в реальном времени с AllMySat

Download on the App Store